Regional Weather Roundup
Issued by NWS

Home | Current Version | Previous Version | Graphics & Text | Print | Product List | Glossary On
Versions: 1 2 3 4 5 6 7 8 9 10 11 12 13 14 15 16 17 18 19 20 21 22 23 24 25 26 27 28 29 30 31 32 33 34 35 36 37 38 39 40 41 42 43 44 45 46 47 48 49 50
166
ASUS43 KDMX 210401
RWRIA

WEATHER ROUNDUP FOR IOWA
NATIONAL WEATHER SERVICE DES MOINES IA
1000 PM CST MON NOV 20 2017

NOTE: "FAIR" INDICATES FEW OR NO CLOUDS BELOW 12,000 FEET WITH NO
SIGNIFICANT WEATHER AND/OR OBSTRUCTIONS TO VISIBILITY.

* - THESE STATIONS ARE NOT NWS STATIONS...THUS NOT UNDER NWS
QUALITY CONTROL.  THEY ALSO DO NOT REPORT WEATHER SUCH
AS PRECIPITATION OR FOG.

IAZ001>003-012>014-020>022-031>034-043>046-210500-
   NORTHWEST IOWA

CITY           SKY/WX    TMP DP  RH WIND       PRES   REMARKS
CARROLL *      MOCLDY    46  28  49 SW14      29.64R
CHEROKEE *     CLEAR     35  27  74 SW5       29.64R WCI  31
DENISON *      CLOUDY    43  28  56 SW5       29.67R
LE MARS *      CLOUDY    41  27  56 W5        29.65R
ORANGE CITY *  CLEAR     39  27  60 NW5       29.64R
SHELDON *      CLEAR     34  23  64 W5        29.62R WCI  30
SIOUX CITY     PTCLDY    35  27  72 W5        29.66R WCI  31
SPENCER        CLEAR     38  26  62 W10       29.61R WCI  31
STORM LAKE *   CLOUDY    39  27  60 W10       29.63R WCI  32
$$

IAZ055>058-069>071-079>083-090>094-210500-
   SOUTHWEST IOWA

CITY           SKY/WX    TMP DP  RH WIND       PRES   REMARKS
ATLANTIC *     CLOUDY    39  30  70 SW6       29.67R WCI  35
AUDUBON *      CLOUDY    45  30  57 CALM      29.67R
CLARINDA *       N/A     43  30  61 SW3         N/A
COUNCIL BLFS * CLOUDY    46  28  49 SW8       29.66S
CRESTON *      PTCLDY    43  30  61 SW9       29.69R
HARLAN  *      CLOUDY    37  30  75 CALM      29.69R
LAMONI         PTCLDY    48  30  49 SW12      29.69R
RED OAK *      CLOUDY    36  28  75 CALM      29.68R
SHENANDOAH *   CLOUDY    39  28  65 CALM      29.69R
$$

IAZ047>049-059>061-072>074-084-210500-
   CENTRAL IOWA

CITY           SKY/WX    TMP DP  RH WIND       PRES   REMARKS
AMES           PTCLDY    45  32  60 W10       29.63R
ANKENY *       PTCLDY    50  30  46 SW12      29.64F
BOONE *        PTCLDY    46  28  49 W12       29.63R
CHARITON *     PTCLDY    50  30  46 SW13      29.67R
DES MOINES     CLOUDY    48  30  49 SW10      29.65S
GRINNELL*      PTCLDY    47  31  55 SW13      29.65S
KNOXVILLE *    PTCLDY    50  28  43 SW13G20   29.64S
MARSHALLTOWN   CLOUDY    45  31  58 SW9       29.61F
NEWTON *       PTCLDY    46  32  57 SW9       29.64S
PELLA *        CLOUDY    51  30  45 SW12      29.66S
PERRY *          N/A     39  28  63 SW5       29.64R
$$

IAZ004>006-015-016-023>025-035-036-210500-
   NORTH CENTRAL IOWA

CITY           SKY/WX    TMP DP  RH WIND       PRES   REMARKS
ALGONA *       PTCLDY    39  30  70 W9        29.60R WCI  33
CLARION *      MOCLDY    37  32  81 SW8       29.61S WCI  31
ESTHERVILLE    CLEAR     37  27  67 W13       29.59R WCI  29
FORT DODGE *   PTCLDY    42  29  59 SW7       29.63R
MASON CITY     MOCLDY    44  28  53 W16       29.60R
FOREST CITY *    N/A     36  30  80 CALM      29.60R
WEBSTER CITY * PTCLDY    43  30  61 W12       29.60S
IOWA FALLS *     N/A     43  32  64 SW13      29.62R
$$

IAZ007>011-017>019-026>030-037>042-050>054-066-210500-
   NORTHEAST IOWA

CITY           SKY/WX    TMP DP  RH WIND       PRES   REMARKS
CEDAR RAPIDS   CLOUDY    48  32  53 SW13      29.63R
CHARLES CITY * CLEAR     41  30  65 SW8       29.59S
CLINTON *      CLOUDY    51  32  48 SW23      29.65F
DECORAH *      CLEAR     45  32  61 SW10G18   29.56R
DUBUQUE        PTCLDY    49  30  48 SW22G31   29.59S
MONTICELLO *   PTCLDY    48  32  53 SW13      29.61F
OELWEIN *      CLEAR     41  34  75 SW12      29.61R
WATERLOO       PTCLDY    44  30  57 SW10      29.61R
$$

IAZ064-065-067-068-078-210500-
   EAST CENTRAL IOWA

CITY           SKY/WX    TMP DP  RH WIND       PRES   REMARKS
DAVENPORT      CLOUDY    50  30  46 S16G24    29.68F
IOWA CITY      CLOUDY    52  31  44 S9        29.67S
MT. PLEASANT * CLOUDY    49  31  50 S16       29.70S
MUSCATINE *    CLOUDY    52  32  46 S15G22    29.68S
QUAD CITIES    CLOUDY    51  30  44 S16       29.67F
$$

IAZ062-063-075>077-085>089-095>099-210500-
   SOUTHEAST IOWA

CITY           SKY/WX    TMP DP  RH WIND       PRES   REMARKS
BURLINGTON     CLOUDY    49  33  54 S16       29.71F
FAIRFIELD *    CLOUDY    52  30  43 SW15G21   29.67S
FORT MADISON * PTCLDY    52  32  46 SW12      29.73R
KEOKUK *       CLOUDY    50  30  46 SW14      29.72S
OSKALOOSA *      N/A     50  32  50 SW16      29.66S
OTTUMWA        CLOUDY    53  30  41 SW15      29.67R
WASHINGTON *   CLOUDY    50  32  50 SW14G21   29.67F
$$

ABBREVIATIONS USED IN REMARKS
   TC - TEMPERATURES IN CELSIUS
  WCI - WIND CHILL INDEX
   HX - HEAT INDEX
  VSB - VISIBILITY
$$





USA.gov is the U.S. government's official web portal to all federal, state and local government web resources and services.